DW5260 Weather Reports


time (UTC)temp
F
wind
direction
speed
knots
gust
knots
rain 1hr
in
rain 24hr
in
rain mn
in
humidity
%
barometer
mb
20260904121531 0 0.0 0.0 0.00 0.00 0.00 1015.3
20260904120002 0 0.0 0.0 0.00 0.00 0.00 1015.1
20260904114529 0 0.0 0.0 0.00 0.00 0.00 1015.0
20260904113004 0 0.0 0.0 0.00 0.00 0.00 1014.8
20260904111521 0 0.0 0.0 0.00 0.00 0.00 1014.7
20260904110029 0 0.0 0.0 0.00 0.00 0.00 1014.5
20260904104512 0 0.0 0.0 0.00 0.00 0.00 1014.4
20260904103044 0 0.0 0.0 0.00 0.00 0.00 1014.3
20260904101544 0 0.0 0.0 0.00 0.00 0.00 1014.3
20260904100056 0 0.0 0.0 0.00 0.00 0.00 1014.2
20260904093018 0 0.0 0.0 0.00 0.00 0.00 1013.9
20260904091546 0 0.0 0.0 0.00 0.00 0.00 1013.8
20260904090053 0 0.0 0.0 0.00 0.00 0.00 1013.7
20260904084558 0 0.0 0.0 0.00 0.00 0.00 1013.7
20260904081554 81 153 0.0 0.0 0.00 0.00 0.00 87 1013.6
20260904080049 81 155 0.0 0.0 0.00 0.00 0.00 87 1013.5
20260904074557 81 225 0.0 0.0 0.00 0.00 0.00 87 1013.5
20260904073106 81 198 0.0 0.0 0.00 0.00 0.00 88 1013.6
20260904071502 81 160 0.0 0.0 0.00 0.00 0.00 88 1013.4
20260904070006 81 150 0.0 0.0 0.00 0.00 0.00 89 1013.6
20260904064605 81 141 0.0 0.0 0.00 0.00 0.00 89 1013.7
20260904063123 81 174 0.0 0.0 0.00 0.00 0.00 89 1013.9
20260904061559 81 162 0.0 0.0 0.00 0.00 0.00 88 1014.0
20260904060100 81 114 0.0 0.0 0.00 0.00 0.00 88 1014.2
20260904054610 81 142 0.0 0.0 0.00 0.00 0.00 87 1014.3
20260904053058 81 129 0.0 0.0 0.00 0.00 0.00 87 1014.5
20260904051607 81 124 0.0 0.0 0.00 0.00 0.00 87 1014.7
20260904050100 81 117 0.0 0.0 0.00 0.00 0.00 86 1014.7
20260904044606 81 134 0.0 0.0 0.00 0.00 0.00 86 1014.8
20260904043104 81 176 0.0 0.0 0.00 0.02 0.00 85 1014.8
20260904041503 81 171 0.0 0.0 0.00 0.02 0.00 85 1014.7
20260904040107 81 151 0.0 0.0 0.00 0.02 0.00 85 1014.7
20260904034558 81 175 0.0 0.0 0.00 0.02 0.00 85 1014.5
20260904033058 81 229 0.0 0.0 0.00 0.08 0.00 85 1014.6
20260904031554 81 172 0.0 0.0 0.00 0.08 0.00 84 1014.7
20260904030057 81 209 0.0 0.0 0.00 0.08 0.00 85 1014.8
20260904024557 81 143 0.0 0.0 0.00 0.08 0.00 86 1014.8
20260904023057 82 108 0.0 0.0 0.00 0.09 0.00 87 1014.7
20260904021554 82 106 0.0 0.0 0.00 0.09 0.00 86 1014.8
20260904020051 82 167 0.0 0.0 0.00 0.09 0.00 86 1014.8
20260904014556 82 149 0.0 0.0 0.00 0.09 0.00 86 1014.8
20260904013048 82 97 0.0 0.0 0.00 0.09 0.00 86 1014.6
20260904011548 82 91 0.0 0.0 0.00 0.09 0.00 86 1014.3
20260904010052 82 136 0.0 0.0 0.00 0.09 0.00 86 1014.5
20260904004556 82 146 0.0 0.0 0.00 0.09 0.00 87 1014.4
20260904003104 82 141 0.0 0.0 0.00 0.09 0.00 86 1014.5
20260904001559 82 148 0.0 0.0 0.00 0.09 0.00 86 1014.5
20260904000123 82 201 0.0 0.0 0.00 0.09 0.00 86 1014.5
20260903234604 82 157 0.0 0.0 0.00 0.09 0.00 85 1014.3
20260903233108 82 118 0.0 0.0 0.00 0.09 0.00 86 1014.2
20260903231600 82 148 0.0 0.0 0.00 0.09 0.00 85 1014.0
20260903224627 82 165 0.0 0.0 0.00 0.09 0.00 84 1014.0
20260903223010 82 138 0.0 0.0 0.00 0.09 0.00 84 1013.8
20260903221508 83 131 0.0 0.0 0.00 0.09 0.00 83 1013.7
20260903220008 83 146 0.0 0.0 0.00 0.09 0.00 84 1013.4
20260903214506 83 192 0.0 0.0 0.00 0.09 0.00 84 1013.7
20260903213006 83 115 0.0 0.0 0.00 0.09 0.00 84 1014.0
20260903211506 83 147 0.0 0.0 0.00 0.09 0.00 83 1013.4
20260903210004 83 125 0.0 0.0 0.00 0.09 0.00 84 1012.8
20260903204606 83 134 0.0 0.0 0.00 0.09 0.00 84 1012.9
20260903203115 83 84 0.0 0.0 0.00 0.09 0.00 84 1013.2
20260903201503 83 101 0.0 0.0 0.00 0.09 0.00 84 1013.5
20260903200006 83 132 0.0 0.0 0.00 0.09 0.00 84 1013.6
20260903194502 83 113 0.0 0.0 0.00 0.09 0.00 85 1013.7
20260903193104 83 147 0.0 0.0 0.00 0.09 0.00 85 1013.9
20260903191502 83 91 0.0 0.0 0.00 0.09 0.00 84 1014.0
20260903190004 83 86 0.0 0.0 0.00 0.09 0.00 84 1014.1
20260903184506 83 49 0.0 0.0 0.00 0.09 0.00 84 1014.3
20260903183004 83 95 0.0 0.0 0.00 0.09 0.00 85 1014.6
20260903181501 83 120 0.0 0.0 0.00 0.09 0.00 85 1014.6
20260903180008 83 91 0.0 0.0 0.00 0.09 0.00 84 1014.7
20260903174510 83 85 0.0 0.0 0.00 0.09 0.00 85 1014.6
20260903173058 82 67 0.0 0.0 0.00 0.09 0.00 85 1014.7
20260903171559 82 119 0.0 0.0 0.00 0.09 0.00 85 1014.7
20260903170107 82 72 0.0 0.0 0.00 0.09 0.00 85 1014.8
20260903164502 82 94 0.0 0.0 0.00 0.09 0.00 84 1014.9
20260903163006 83 39 0.0 0.0 0.00 0.09 0.00 84 1015.2
20260903161502 82 71 0.0 0.0 0.00 0.09 0.00 85 1015.4
20260903160129 82 84 0.0 0.0 0.00 0.09 0.00 86 1015.6
20260903154611 81 60 0.0 0.0 0.00 0.09 0.00 86 1015.8
20260903153058 81 110 0.0 0.0 0.00 0.09 0.00 87 1015.7
20260903151600 81 89 0.0 0.0 0.00 0.09 0.00 87 1015.7
20260903150111 81 85 0.0 0.0 0.00 0.09 0.00 87 1015.6
20260903144504 81 48 0.0 0.0 0.00 0.09 0.00 86 1015.5
20260903143111 82 81 0.0 0.0 0.00 0.09 0.00 85 1015.5
20260903141603 82 226 0.0 0.0 0.00 0.09 0.00 85 1015.3
20260903140057 82 225 0.0 0.0 0.00 0.09 0.00 85 1015.1
20260903134559 81 225 0.0 0.0 0.00 0.09 0.00 86 1014.9
20260903133052 81 226 0.0 0.0 0.00 0.09 0.00 86 1014.9
20260903131552 81 226 0.0 0.0 0.00 0.09 0.00 86 1014.9
20260903130052 81 226 0.0 0.0 0.00 0.09 0.00 87 1014.6
20260903124553 81 229 0.0 0.0 0.00 0.09 0.00 88 1014.7
20260903123044 0 0.0 0.0 0.00 0.09 0.00 1014.8